Regional Weather Roundup
Issued by NWS Newport/Morehead, NC

Current Version | Previous Version | Text Only | Print | Product List | Glossary Off
Versions: 1 2 3 4 5 6 7 8 9 10 11 12 13 14 15 16 17 18 19 20 21 22 23 24 25 26 27 28 29 30 31 32 33 34 35 36 37 38 39 40 41 42 43 44 45 46 47 48 49 50
000 ASUS42 KMHX 241810 RWRMHX WEATHER ROUNDUP FOR EASTERN NORTH CAROLINA NATIONAL WEATHER SERVICE NEWPORT/MOREHEAD CITY NC 200 PM EDT THU JUL 24 2014 NOTE: "FAIR" INDICATES FEW OR NO CLOUDS BELOW 12,000 FEET WITH NO SIGNIFICANT WEATHER AND/OR OBSTRUCTIONS TO VISIBILITY NCZ015>017-031-032-045>047-102-103-241900- NORTH COAST CITY SKY/WX TMP DP RH WIND PRES REMARKS EDENTON CLOUDY 74 73 95 CALM 29.88F ELIZABETH CITY LGT RAIN 75 70 84 N5 29.88S KITTY HAWK RAIN 73 70 92 CALM 29.88R MANTEO NOT AVBL $$ NCZ045>047-081-094-103-104-241900- CENTRAL COAST CITY SKY/WX TMP DP RH WIND PRES REMARKS FRISCO LGT RAIN 82 78 88 W10G21 29.89R SWANQUARTER N/A 73 N/A N/A NW6 29.85S $$ NCZ095-097-098-100-101-241900- SOUTHERN COAST CITY SKY/WX TMP DP RH WIND PRES REMARKS BEAUFORT MOSUNNY 86 80 82 SW21G29 29.88F HX 101 CEDAR ISLAND N/A 75 N/A N/A NW23G30 29.94R JACKSONVILLE PTSUNNY 91 74 57 W12 29.85F HX 100 NEWPORT NOT AVBL PINEY ISLAND HVY RAIN 74 74 100 W7 29.93R FOG WILMINGTON MOSUNNY 93 73 52 SW18 29.87F HX 102 $$ NCZ011>013-027>030-043-044-078>080-089-090>093-098-241900- COASTAL PLAIN CITY SKY/WX TMP DP RH WIND PRES REMARKS AHOSKIE PTSUNNY 79 69 70 CALM 29.89F CLINTON PTSUNNY 90 76 62 W14G22 29.86F HX 101 ELIZABETHTOWN PTSUNNY 91 73 55 SW10G20 29.88F GOLDSBORO TSTM 79 77 94 S7 29.88S GREENVILLE PTSUNNY 77 73 88 CALM 29.90F HAVELOCK PTSUNNY 78 68 71 N16G28 29.91F THUNDER KENANSVILLE CLOUDY 80 73 76 CALM 29.89R KINSTON PTSUNNY 77 73 88 CALM 29.89F NEW BERN TSTM 73 70 88 N3 29.91F VSB 3/4 RICHLANDS PTSUNNY 90 73 58 SW13 29.86S ROANOKE RAPIDS NOT AVBL ROCKY MOUNT PTSUNNY 83 72 69 E3 29.89F WASHINGTON CLOUDY 72 70 94 N3 29.90F WHITEVILLE MOSUNNY 91 73 55 SW8 29.88F $$ AMZ130-135-150-152-154-156-158-170-250-252-270-ANZ085-086-088-633-658-670-241900- MARINE OBSERVATIONS STATION/POSITION TIME TEMP WIND PRES WAVE SWELL AIR SEA DIR/SP/G HT/PER HT/PER (UTC) (F) (DEG/KT/KT) (MB) (FT/S) (FT/S) CHESAPEAKE LIGHT NOT AVBL BUOY 44014 1800 75 78 10/ 8/ 10 1011.0 4/ 6 3/ 6 DUCK 1800 72 71 340/ 7/ 8 1011.2 2E DUCK 1800 N/A 2/ 3 OREGON INLET 1800 74 83 300/ 9/ 12 1012.9 BUOY 44095 1800 78 N/A 3/ 7 20E OREGON INLET 1700 VRB 10/ 14 N/A HATTERAS CG 1800 81 82 230/ 14/ 20 1012.5 DIAMOND BUOY 1800 VRB 19/ 23 1011.3 4/ 5 2/ 7 CAPE LOOKOUT 1700 83 220/ 14/ 19 1012.2 BEAUFORT LAB 1800 84 82 220/ 11/ 19 1011.6 30 SE NEW RIVER 1800 81 81 220/ 17/ 19 1012.5 4/ 6 2/ 7 5 SE WRIGHTSVILL 1700 80 82 210/ 17/ 21 N/A BUOY 41002 1704 82 82 240/ 19/ 23 1016.8 5/ 6 BUOY 41004 1800 83 83 230/ 14/ 16 1013.9 3/ 6 2/ 7 $$

USA.gov is the U.S. government's official web portal to all federal, state and local government web resources and services.